Back to catalog

HULIANWANG DIGUI-47

AliveCommunicationsLEO
NORAD 65050·PAYLOAD·🇨🇳 China

Launched Jul 30, 2025 from Wenchang Space Launch Site

Loading…

Next Passes (next 24 hours)

TLE

FreshSource: Space-Track

Epoch: Sep 14, 2026, 13:42 UTC

1 65050U 25162H   26257.57112476 -.00000080  00000-0  95819-4 0  9992
2 65050  50.0034 304.9252 0000651 262.9504  97.1294 13.29329965 55253

Track HULIANWANG DIGUI-47 in real time with AllMySat

Download on the App Store